SXS9602 LTBJ-LTAN

Flight info

Callsign SXS9602
Flight time 1h 20m
Altitude 35000
Route KULAR UT54 KFK UB545 HISAR
Aircraft B738/M-SDE2E3FGHIRWXY/LB1

Departure

Time 2026-05-07 19:27
Airport Adnan Menderes International Airport (LTBJ)

Arrival

Time 2026-05-07 20:48
Airport Konya Airport (LTAN)
Time Latitude Longitude Altitude Speed Heading
2026-05-07 19:05 38.29251 27.15084 406 ft 0 kts 257°
2026-05-07 19:16 38.29252 27.15086 410 ft 2 kts 257°
2026-05-07 19:16 38.29257 27.15113 410 ft 4 kts 254°
2026-05-07 19:16 38.29268 27.15141 403 ft 4 kts 210°
2026-05-07 19:17 38.29292 27.15146 407 ft 4 kts 167°
2026-05-07 19:17 38.29306 27.15141 405 ft 0 kts 166°
2026-05-07 19:19 38.29297 27.15144 408 ft 4 kts 166°
2026-05-07 19:19 38.29229 27.15165 410 ft 14 kts 166°
2026-05-07 19:19 38.29133 27.15194 410 ft 14 kts 167°
2026-05-07 19:20 38.29046 27.15220 410 ft 11 kts 167°
2026-05-07 19:20 38.29004 27.15289 410 ft 10 kts 135°
2026-05-07 19:20 38.28938 27.15318 411 ft 10 kts 167°
2026-05-07 19:20 38.28870 27.15340 410 ft 10 kts 166°
2026-05-07 19:21 38.28809 27.15358 415 ft 7 kts 166°
2026-05-07 19:21 38.28769 27.15370 409 ft 4 kts 166°
2026-05-07 19:21 38.28744 27.15378 410 ft 4 kts 166°
2026-05-07 19:21 38.28720 27.15385 413 ft 4 kts 166°
2026-05-07 19:22 38.28667 27.15401 418 ft 13 kts 166°
2026-05-07 19:22 38.28550 27.15437 412 ft 20 kts 167°
2026-05-07 19:22 38.28412 27.15478 410 ft 20 kts 167°
2026-05-07 19:22 38.28277 27.15518 412 ft 20 kts 167°
2026-05-07 19:23 38.28147 27.15558 413 ft 19 kts 166°
2026-05-07 19:23 38.28020 27.15596 415 ft 18 kts 166°
2026-05-07 19:23 38.27899 27.15633 414 ft 18 kts 167°
2026-05-07 19:23 38.27785 27.15667 413 ft 9 kts 166°
2026-05-07 19:24 38.27761 27.15732 414 ft 9 kts 76°
2026-05-07 19:24 38.27778 27.15810 417 ft 9 kts 75°
2026-05-07 19:24 38.27793 27.15893 416 ft 10 kts 77°
2026-05-07 19:24 38.27808 27.15978 413 ft 10 kts 79°
2026-05-07 19:25 38.27810 27.15990 409 ft 0 kts 79°
2026-05-07 19:25 38.27810 27.15994 408 ft 2 kts 79°
2026-05-07 19:26 38.27817 27.16043 416 ft 10 kts 79°
2026-05-07 19:26 38.27851 27.16113 410 ft 10 kts
2026-05-07 19:26 38.28056 27.16052 416 ft 70 kts 346°
2026-05-07 19:26 38.28782 27.15833 415 ft 144 kts 347°
2026-05-07 19:27 38.29955 27.15482 538 ft 196 kts 348°
2026-05-07 19:27 38.31335 27.15133 1225 ft 208 kts 348°
2026-05-07 19:27 38.32788 27.14861 1994 ft 215 kts 352°
2026-05-07 19:27 38.34298 27.14696 2625 ft 218 kts 355°
2026-05-07 19:28 38.35813 27.14550 3115 ft 222 kts 353°
2026-05-07 19:28 38.37405 27.14446 3475 ft 234 kts 360°
2026-05-07 19:28 38.39111 27.14670 3606 ft 260 kts 11°
2026-05-07 19:28 38.40896 27.15467 3898 ft 282 kts 28°
2026-05-07 19:29 38.42412 27.17069 4688 ft 281 kts 52°
2026-05-07 19:29 38.43480 27.19168 5377 ft 288 kts 60°
2026-05-07 19:29 38.44397 27.21455 6107 ft 291 kts 67°
2026-05-07 19:29 38.45052 27.23935 6670 ft 302 kts 76°
2026-05-07 19:30 38.45477 27.26596 7247 ft 310 kts 80°
2026-05-07 19:30 38.45777 27.29333 8030 ft 309 kts 82°
2026-05-07 19:30 38.46081 27.32026 8997 ft 305 kts 81°
2026-05-07 19:30 38.46388 27.34692 9922 ft 305 kts 82°
2026-05-07 19:31 38.46663 27.37360 10803 ft 300 kts 81°
2026-05-07 19:31 38.46942 27.40009 11498 ft 308 kts 81°
2026-05-07 19:31 38.47220 27.42793 11918 ft 322 kts 80°
2026-05-07 19:31 38.47539 27.45653 12673 ft 324 kts 81°
2026-05-07 19:32 38.47797 27.48451 13725 ft 320 kts 81°
2026-05-07 19:32 38.48144 27.51328 14033 ft 339 kts 76°
2026-05-07 19:32 38.48624 27.54340 14440 ft 353 kts 76°
2026-05-07 19:32 38.49037 27.57510 14829 ft 369 kts 79°
2026-05-07 19:33 38.49420 27.60734 15721 ft 365 kts 78°
2026-05-07 19:33 38.49811 27.63968 16417 ft 371 kts 78°
2026-05-07 19:33 38.50303 27.67176 17347 ft 365 kts 73°
2026-05-07 19:33 38.50823 27.70318 18410 ft 359 kts 76°
2026-05-07 19:34 38.51269 27.73407 19163 ft 361 kts 77°
2026-05-07 19:34 38.51656 27.76653 19398 ft 379 kts 78°
2026-05-07 19:34 38.52068 27.80052 19552 ft 397 kts 79°
2026-05-07 19:34 38.52440 27.83659 19484 ft 422 kts 82°
2026-05-07 19:35 38.52756 27.87444 19879 ft 428 kts 82°
2026-05-07 19:35 38.53008 27.91131 21181 ft 412 kts 82°
2026-05-07 19:35 38.53305 27.94831 21171 ft 432 kts 82°
2026-05-07 19:35 38.53600 27.98797 20909 ft 455 kts 81°
2026-05-07 19:36 38.54056 28.02840 20994 ft 468 kts 79°
2026-05-07 19:36 38.54554 28.07040 20447 ft 490 kts 79°
2026-05-07 19:36 38.55009 28.10817 19681 ft 516 kts 77°
2026-05-07 19:36 38.29251 27.15084 407 ft 4 kts 257°
2026-05-07 19:47 38.29253 27.15095 408 ft 4 kts 257°
2026-05-07 19:47 38.29259 27.15122 410 ft 4 kts 246°
2026-05-07 19:47 38.29274 27.15145 403 ft 4 kts 192°
2026-05-07 19:47 38.29299 27.15144 409 ft 4 kts 166°
2026-05-07 19:48 38.29306 27.15141 405 ft 0 kts 166°
2026-05-07 19:50 38.29276 27.15151 403 ft 12 kts 166°
2026-05-07 19:50 38.29176 27.15181 409 ft 15 kts 166°
2026-05-07 19:50 38.29076 27.15212 410 ft 14 kts 166°
2026-05-07 19:50 38.29006 27.15285 410 ft 14 kts 124°
2026-05-07 19:51 38.28919 27.15327 411 ft 13 kts 163°
2026-05-07 19:51 38.28832 27.15353 414 ft 13 kts 168°
2026-05-07 19:51 38.28747 27.15377 412 ft 12 kts 166°
2026-05-07 19:51 38.28674 27.15400 415 ft 11 kts 166°
2026-05-07 19:52 38.28604 27.15422 413 ft 10 kts 166°
2026-05-07 19:52 38.28536 27.15443 414 ft 10 kts 167°
2026-05-07 19:52 38.28469 27.15463 410 ft 10 kts 167°
2026-05-07 19:52 38.28397 27.15485 413 ft 11 kts 167°
2026-05-07 19:53 38.28315 27.15509 412 ft 13 kts 167°
2026-05-07 19:53 38.28225 27.15536 410 ft 14 kts 167°
2026-05-07 19:53 38.28135 27.15563 416 ft 13 kts 167°
2026-05-07 19:53 38.28056 27.15587 414 ft 11 kts 166°
2026-05-07 19:54 38.27988 27.15607 415 ft 9 kts 166°
2026-05-07 19:54 38.27927 27.15626 416 ft 9 kts 166°
2026-05-07 19:54 38.27866 27.15645 415 ft 9 kts 166°
2026-05-07 19:54 38.27800 27.15666 415 ft 10 kts 166°
2026-05-07 19:55 38.27763 27.15732 410 ft 11 kts 82°
2026-05-07 19:55 38.27782 27.15829 414 ft 12 kts 78°
2026-05-07 19:55 38.27802 27.15944 416 ft 14 kts 78°
2026-05-07 19:55 38.27823 27.16073 408 ft 16 kts 77°
2026-05-07 19:56 38.27905 27.16099 412 ft 16 kts 345°
2026-05-07 19:56 38.28245 27.15995 418 ft 84 kts 347°
2026-05-07 19:56 38.29024 27.15760 411 ft 143 kts 346°
2026-05-07 19:56 38.30119 27.15423 618 ft 173 kts 345°
2026-05-07 19:57 38.31299 27.15019 1226 ft 180 kts 340°
2026-05-07 19:57 38.32482 27.14517 1914 ft 182 kts 335°
2026-05-07 19:57 38.33714 27.14069 2529 ft 189 kts 348°
2026-05-07 19:57 38.35036 27.13803 3210 ft 192 kts 347°
2026-05-07 19:58 38.36354 27.13467 3870 ft 195 kts 346°
2026-05-07 19:58 38.37713 27.13354 4507 ft 199 kts
2026-05-07 19:58 38.39038 27.13831 5122 ft 209 kts 22°
2026-05-07 19:58 38.40363 27.14897 5349 ft 238 kts 44°
2026-05-07 19:59 38.41437 27.16629 5631 ft 263 kts 54°
2026-05-07 19:59 38.42536 27.18595 6218 ft 277 kts 54°
2026-05-07 19:59 38.43638 27.20566 7181 ft 277 kts 54°
2026-05-07 19:59 38.44627 27.22695 7758 ft 282 kts 72°
2026-05-07 20:00 38.45074 27.25147 8533 ft 288 kts 77°
2026-05-07 20:00 38.45508 27.27660 9413 ft 293 kts 76°
2026-05-07 20:00 38.45967 27.30211 10274 ft 297 kts 76°
2026-05-07 20:00 38.46456 27.32870 10630 ft 321 kts 75°
2026-05-07 20:01 38.46977 27.35736 11031 ft 339 kts 77°
2026-05-07 20:01 38.47359 27.38751 11714 ft 348 kts 81°
2026-05-07 20:01 38.47653 27.41836 12479 ft 353 kts 81°
2026-05-07 20:01 38.47952 27.44971 13231 ft 359 kts 81°
2026-05-07 20:02 38.48275 27.48163 13976 ft 365 kts 80°
2026-05-07 20:02 38.48612 27.51401 14647 ft 371 kts 79°
2026-05-07 20:02 38.49010 27.54662 15222 ft 372 kts 77°
2026-05-07 20:02 38.49473 27.57916 15493 ft 375 kts 76°
2026-05-07 20:03 38.49956 27.61198 15482 ft 375 kts 76°
2026-05-07 20:03 38.50431 27.64462 15493 ft 374 kts 77°
2026-05-07 20:03 38.50897 27.67731 15496 ft 374 kts 77°
2026-05-07 20:03 38.51356 27.70995 15492 ft 374 kts 77°
2026-05-07 20:04 38.51812 27.74266 15493 ft 374 kts 77°
2026-05-07 20:04 38.52266 27.77541 15491 ft 374 kts 77°
2026-05-07 20:04 38.52718 27.80815 15497 ft 375 kts 77°
2026-05-07 20:04 38.53173 27.84109 15616 ft 379 kts 77°
2026-05-07 20:05 38.53632 27.87445 16280 ft 382 kts 77°
2026-05-07 20:05 38.54090 27.90783 17166 ft 381 kts 77°
2026-05-07 20:05 38.54549 27.94135 17909 ft 385 kts 77°
2026-05-07 20:05 38.55014 27.97526 18558 ft 390 kts 77°
2026-05-07 20:06 38.55482 28.00958 19166 ft 394 kts 77°
2026-05-07 20:06 38.55952 28.04413 19813 ft 396 kts 77°
2026-05-07 20:06 38.56425 28.07899 20452 ft 399 kts 77°
2026-05-07 20:06 38.56894 28.11363 21045 ft 403 kts 77°
2026-05-07 20:07 38.57373 28.14903 21644 ft 406 kts 78°
2026-05-07 20:07 38.57854 28.18473 22242 ft 409 kts 78°
2026-05-07 20:07 38.58338 28.22070 22831 ft 413 kts 78°
2026-05-07 20:07 38.58776 28.25710 23397 ft 417 kts 83°
2026-05-07 20:08 38.58875 28.29435 23933 ft 422 kts 89°
2026-05-07 20:08 38.58789 28.33196 24424 ft 424 kts 91°
2026-05-07 20:08 38.58660 28.36988 24942 ft 427 kts 91°
2026-05-07 20:08 38.58546 28.40783 25419 ft 429 kts 90°
2026-05-07 20:09 38.58461 28.44606 25911 ft 431 kts 89°
2026-05-07 20:09 38.58399 28.48443 26382 ft 433 kts 89°
2026-05-07 20:09 38.58347 28.52300 26836 ft 435 kts 89°
2026-05-07 20:10 38.58247 28.60084 27736 ft 440 kts 89°
2026-05-07 20:10 38.58212 28.64005 28172 ft 442 kts 86°
2026-05-07 20:10 38.58447 28.67907 28670 ft 440 kts 80°
2026-05-07 20:10 38.58863 28.71773 29296 ft 437 kts 78°
2026-05-07 20:11 38.59326 28.75596 29964 ft 434 kts 78°
2026-05-07 20:11 38.59779 28.79401 30492 ft 432 kts 78°
2026-05-07 20:11 38.60207 28.83201 30887 ft 433 kts 79°
2026-05-07 20:11 38.60614 28.87026 31239 ft 435 kts 79°
2026-05-07 20:12 38.61005 28.90857 31654 ft 435 kts 79°
2026-05-07 20:12 38.61383 28.94642 32097 ft 434 kts 80°
2026-05-07 20:12 38.61767 28.98522 32525 ft 434 kts 79°
2026-05-07 20:12 38.62141 29.02296 32977 ft 432 kts 79°
2026-05-07 20:13 38.62520 29.06118 33176 ft 437 kts 79°
2026-05-07 20:13 38.63183 29.13866 33155 ft 438 kts 88°
2026-05-07 20:14 38.62197 29.21502 33171 ft 439 kts 107°
2026-05-07 20:14 38.60135 29.28879 33189 ft 441 kts 108°
2026-05-07 20:15 38.58048 29.36268 33176 ft 443 kts 108°
2026-05-07 20:15 38.55975 29.43687 33183 ft 444 kts 108°
2026-05-07 20:16 38.54260 29.49858 33173 ft 444 kts 108°
2026-05-07 20:16 38.52200 29.57273 33184 ft 442 kts 108°
2026-05-07 20:17 38.50142 29.64665 33185 ft 441 kts 108°
2026-05-07 20:17 38.48083 29.72032 33196 ft 440 kts 108°
2026-05-07 20:18 38.46025 29.79380 33191 ft 439 kts 108°
2026-05-07 20:18 38.43962 29.86720 33193 ft 439 kts 108°
2026-05-07 20:19 38.41901 29.94035 33210 ft 438 kts 108°
2026-05-07 20:19 38.39833 30.01356 33208 ft 439 kts 108°
2026-05-07 20:20 38.37757 30.08683 33217 ft 439 kts 108°
2026-05-07 20:20 38.35689 30.15960 33204 ft 440 kts 108°
2026-05-07 20:21 38.33599 30.23295 33222 ft 438 kts 108°
2026-05-07 20:21 38.32565 30.26913 33062 ft 433 kts 108°
2026-05-07 20:21 38.31540 30.30497 32794 ft 426 kts 108°
2026-05-07 20:21 38.30531 30.34019 32436 ft 423 kts 108°
2026-05-07 20:22 38.29527 30.37521 32081 ft 419 kts 108°
2026-05-07 20:22 38.28530 30.40994 31753 ft 416 kts 108°
2026-05-07 20:22 38.27538 30.44446 31404 ft 414 kts 108°
2026-05-07 20:22 38.26551 30.47878 31063 ft 411 kts 108°
2026-05-07 20:23 38.25569 30.51283 30724 ft 409 kts 108°
2026-05-07 20:23 38.24591 30.54675 30388 ft 407 kts 107°
2026-05-07 20:23 38.23618 30.58044 30012 ft 405 kts 107°
2026-05-07 20:23 38.22646 30.61404 29631 ft 403 kts 108°
2026-05-07 20:24 38.21684 30.64729 29284 ft 399 kts 107°
2026-05-07 20:24 38.20727 30.68027 28909 ft 396 kts 108°
2026-05-07 20:24 38.19778 30.71297 28575 ft 393 kts 108°
2026-05-07 20:24 38.18835 30.74541 28214 ft 390 kts 108°
2026-05-07 20:25 38.17897 30.77764 27862 ft 387 kts 108°
2026-05-07 20:25 38.16965 30.80962 27526 ft 385 kts 108°
2026-05-07 20:25 38.16039 30.84137 27188 ft 382 kts 108°
2026-05-07 20:25 38.15131 30.87249 26862 ft 380 kts 108°
2026-05-07 20:26 38.14213 30.90390 26518 ft 378 kts 108°
2026-05-07 20:26 38.13301 30.93505 26196 ft 375 kts 108°
2026-05-07 20:26 38.12392 30.96605 25871 ft 374 kts 108°
2026-05-07 20:26 38.11487 30.99691 25537 ft 372 kts 108°
2026-05-07 20:27 38.10583 31.02769 25212 ft 371 kts 108°
2026-05-07 20:27 38.09683 31.05831 24890 ft 370 kts 108°
2026-05-07 20:27 38.08784 31.08887 24557 ft 369 kts 108°
2026-05-07 20:27 38.07886 31.11933 24220 ft 369 kts 108°
2026-05-07 20:28 38.06986 31.14986 23876 ft 369 kts 108°
2026-05-07 20:28 38.06088 31.18026 23516 ft 368 kts 108°
2026-05-07 20:28 38.05190 31.21062 23149 ft 367 kts 108°
2026-05-07 20:28 38.04294 31.24087 22782 ft 364 kts 108°
2026-05-07 20:29 38.03408 31.27077 22465 ft 362 kts 108°
2026-05-07 20:29 38.02522 31.30061 22123 ft 360 kts 108°
2026-05-07 20:29 38.01642 31.33025 21804 ft 358 kts 108°
2026-05-07 20:29 38.00767 31.35969 21475 ft 356 kts 108°
2026-05-07 20:30 37.99895 31.38898 21156 ft 354 kts 108°
2026-05-07 20:30 37.99025 31.41817 20831 ft 353 kts 108°
2026-05-07 20:30 37.98160 31.44719 20509 ft 351 kts 108°
2026-05-07 20:30 37.97303 31.47593 20177 ft 350 kts 108°
2026-05-07 20:31 37.96443 31.50468 19865 ft 348 kts 109°
2026-05-07 20:31 37.95585 31.53336 19548 ft 347 kts 108°
2026-05-07 20:31 37.94727 31.56199 19208 ft 347 kts 109°
2026-05-07 20:31 37.93871 31.59054 18888 ft 347 kts 109°
2026-05-07 20:32 37.93015 31.61906 18559 ft 346 kts 109°
2026-05-07 20:32 37.92158 31.64760 18191 ft 346 kts 109°
2026-05-07 20:32 37.91304 31.67599 17846 ft 344 kts 109°
2026-05-07 20:32 37.90454 31.70421 17512 ft 342 kts 109°
2026-05-07 20:33 37.89619 31.73192 17191 ft 340 kts 109°
2026-05-07 20:33 37.88777 31.75982 16860 ft 338 kts 109°
2026-05-07 20:33 37.87938 31.78758 16551 ft 336 kts 109°
2026-05-07 20:33 37.87106 31.81512 16239 ft 334 kts 109°
2026-05-07 20:34 37.86276 31.84255 15919 ft 333 kts 109°
2026-05-07 20:34 37.85449 31.86986 15612 ft 331 kts 109°
2026-05-07 20:34 37.84625 31.89705 15300 ft 330 kts 109°
2026-05-07 20:34 37.83807 31.92400 14986 ft 328 kts 109°
2026-05-07 20:35 37.82990 31.95088 14681 ft 327 kts 109°
2026-05-07 20:35 37.82176 31.97765 14365 ft 325 kts 109°
2026-05-07 20:35 37.81465 32.00102 14097 ft 324 kts 109°
2026-05-07 20:35 37.80654 32.02765 13742 ft 322 kts 109°
2026-05-07 20:36 37.79853 32.05389 13396 ft 318 kts 109°
2026-05-07 20:36 37.79065 32.07970 13071 ft 312 kts 109°
2026-05-07 20:36 37.78290 32.10509 12765 ft 307 kts 109°
2026-05-07 20:36 37.77527 32.13001 12462 ft 302 kts 109°
2026-05-07 20:37 37.76774 32.15461 12168 ft 298 kts 109°
2026-05-07 20:37 37.76036 32.17871 11867 ft 291 kts 109°
2026-05-07 20:37 37.75317 32.20217 11580 ft 284 kts 109°
2026-05-07 20:37 37.74611 32.22520 11311 ft 278 kts 109°
2026-05-07 20:38 37.73917 32.24780 11044 ft 273 kts 109°
2026-05-07 20:38 37.73235 32.26999 10765 ft 268 kts 109°
2026-05-07 20:38 37.72563 32.29188 10358 ft 269 kts 109°
2026-05-07 20:38 37.71893 32.31366 10159 ft 260 kts 109°
2026-05-07 20:39 37.71250 32.33454 9861 ft 252 kts 109°
2026-05-07 20:39 37.70628 32.35474 9609 ft 242 kts 108°
2026-05-07 20:39 37.70029 32.37412 9375 ft 232 kts 109°
2026-05-07 20:39 37.69457 32.39263 9162 ft 221 kts 108°
2026-05-07 20:40 37.68912 32.41027 8931 ft 211 kts 108°
2026-05-07 20:40 37.68696 32.42771 8750 ft 197 kts 82°
2026-05-07 20:40 37.68987 32.44454 8582 ft 196 kts 64°
2026-05-07 20:40 37.69830 32.45694 8493 ft 184 kts 20°
2026-05-07 20:41 37.71061 32.45932 8481 ft 183 kts
2026-05-07 20:41 37.72344 32.46175 8263 ft 188 kts
2026-05-07 20:41 37.73634 32.46446 8020 ft 187 kts 11°
2026-05-07 20:41 37.74864 32.46860 7765 ft 184 kts 15°
2026-05-07 20:42 37.76076 32.47349 7525 ft 182 kts 17°
2026-05-07 20:42 37.77275 32.47843 7293 ft 181 kts 18°
2026-05-07 20:42 37.78462 32.48420 7074 ft 185 kts 21°
2026-05-07 20:42 37.79669 32.49054 6946 ft 190 kts 20°
2026-05-07 20:43 37.80886 32.49620 6812 ft 183 kts 18°
2026-05-07 20:43 37.82064 32.50143 6587 ft 174 kts 17°
2026-05-07 20:43 37.83170 32.50624 6397 ft 162 kts 17°
2026-05-07 20:43 37.84202 32.51059 6347 ft 155 kts 17°
2026-05-07 20:44 37.85225 32.51464 6145 ft 150 kts 15°
2026-05-07 20:44 37.86199 32.51834 5886 ft 144 kts 15°
2026-05-07 20:44 37.87142 32.52203 5564 ft 141 kts 15°
2026-05-07 20:44 37.88069 32.52566 5269 ft 137 kts 15°
2026-05-07 20:45 37.88979 32.52910 4997 ft 138 kts 14°
2026-05-07 20:45 37.89905 32.53222 4773 ft 138 kts 13°
2026-05-07 20:45 37.90834 32.53549 4562 ft 138 kts 16°
2026-05-07 20:45 37.91754 32.53902 4346 ft 138 kts 16°
2026-05-07 20:46 37.92665 32.54238 4241 ft 137 kts 15°
2026-05-07 20:46 37.93583 32.54578 4086 ft 137 kts 17°
2026-05-07 20:46 37.94499 32.54935 3856 ft 138 kts 16°
2026-05-07 20:46 37.95410 32.55277 3683 ft 135 kts 15°
2026-05-07 20:47 37.96317 32.55604 3511 ft 136 kts 15°
2026-05-07 20:47 37.97221 32.55942 3377 ft 135 kts 14°
2026-05-07 20:47 37.98133 32.56272 3383 ft 135 kts 13°
2026-05-07 20:47 37.98891 32.56566 3386 ft 92 kts 16°
2026-05-07 20:48 37.99192 32.56679 3389 ft 18 kts 17°
2026-05-07 20:48 37.99285 32.56718 3390 ft 13 kts 21°
2026-05-07 20:48 37.99321 32.56809 3390 ft 13 kts 104°
2026-05-07 20:48 37.99296 32.56913 3391 ft 12 kts 109°
2026-05-07 20:49 37.99270 32.57006 3391 ft 10 kts 109°
2026-05-07 20:49 37.99240 32.57088 3391 ft 10 kts 122°
2026-05-07 20:49 37.99190 32.57169 3391 ft 13 kts 130°
2026-05-07 20:49 37.99123 32.57267 3391 ft 16 kts 131°
2026-05-07 20:50 37.99042 32.57385 3391 ft 19 kts 131°
2026-05-07 20:50 37.98950 32.57519 3390 ft 20 kts 129°
2026-05-07 20:50 37.98831 32.57589 3389 ft 20 kts 189°
2026-05-07 20:50 37.98700 32.57554 3388 ft 19 kts 195°
2026-05-07 20:51 37.98589 32.57512 3387 ft 12 kts 196°
2026-05-07 20:51 37.98535 32.57532 3386 ft 8 kts 112°
2026-05-07 20:51 37.98526 32.57562 3386 ft 0 kts 109°